When you browse on this site, cookies collect data to enhance your experience and personalize the content and advertising you see.
Visit our Privacy Policy to learn more. By continuing to use the site, you agree to this use of cookies and data.
  • In Romania
  • List of Countries
  • For 7 days
  • Water Temperature
  • Satellite Maps
  • Weather Map
  • Weather Widgets
  • user-avatar
    Login

    Hourly Weather Salta

    Today, 19 December, Wednesday

    Time Temperature Precipitation Wind Pressure Humidity
    00:00 +20°C° 0 mm 1 mps 652 mmHg 86%
    01:00 +20°C° 0 mm 1 mps 651 mmHg 86%
    02:00 +19°C° 0 mm 1 mps 651 mmHg 87%
    03:00 +19°C° 0 mm 1 mps 651 mmHg 87%
    04:00 +19°C° 0 mm 1 mps 651 mmHg 86%
    05:00 +19°C° 0 mm 1 mps 650 mmHg 86%
    06:00 +21°C° 0 mm 1 mps 651 mmHg 80%
    07:00 +22°C° 0 mm 1 mps 651 mmHg 74%
    08:00 +23°C° 0 mm 1 mps 652 mmHg 68%
    09:00 +24°C° 0 mm 1 mps 652 mmHg 63%
    10:00 +26°C° 0 mm 2 mps 652 mmHg 58%
    11:00 +27°C° 0 mm 3 mps 652 mmHg 52%
    12:00 +28°C° 0 mm 3 mps 651 mmHg 53%
    13:00 +28°C° 0 mm 3 mps 651 mmHg 54%
    14:00 +28°C° 0 mm 3 mps 650 mmHg 54%
    15:00 +27°C° 0.1 mm 3 mps 649 mmHg 58%
    16:00 +27°C° 0.1 mm 3 mps 649 mmHg 62%
    17:00 +26°C° 0.1 mm 3 mps 648 mmHg 66%
    18:00 +25°C° 0.1 mm 2 mps 648 mmHg 72%
    19:00 +23°C° 0.1 mm 2 mps 648 mmHg 78%
    20:00 +22°C° 0.1 mm 1 mps 648 mmHg 84%
    21:00 +22°C° 0.1 mm 1 mps 649 mmHg 84%
    22:00 +21°C° 0.1 mm 1 mps 649 mmHg 85%
    23:00 +21°C° 0.1 mm 1 mps 649 mmHg 85%

    Tomorrow, 20 December, Thursday

    Time Temperature Precipitation Wind Pressure Humidity
    00:00 +21°C° 0 mm 1 mps 649 mmHg 85%
    01:00 +21°C° 0 mm 1 mps 648 mmHg 84%
    02:00 +20°C° 0 mm 1 mps 648 mmHg 83%
    03:00 +20°C° 0 mm 1 mps 648 mmHg 82%
    04:00 +20°C° 0 mm 1 mps 648 mmHg 81%
    05:00 +20°C° 0 mm 1 mps 647 mmHg 80%
    06:00 +22°C° 0 mm 1 mps 648 mmHg 72%
    07:00 +24°C° 0 mm 1 mps 649 mmHg 64%
    08:00 +25°C° 0 mm 1 mps 650 mmHg 56%
    09:00 +27°C° 0.2 mm 1 mps 650 mmHg 50%
    10:00 +29°C° 0.2 mm 2 mps 650 mmHg 45%
    11:00 +31°C° 0.2 mm 2 mps 651 mmHg 39%
    12:00 +31°C° 0.5 mm 3 mps 650 mmHg 39%
    13:00 +33°C° 0.5 mm 3 mps 649 mmHg 39%
    14:00 +33°C° 0.5 mm 3 mps 649 mmHg 39%
    15:00 +33°C° 0.9 mm 4 mps 648 mmHg 43%
    16:00 +32°C° 0.9 mm 4 mps 648 mmHg 47%
    17:00 +30°C° 0.9 mm 4 mps 647 mmHg 51%
    18:00 +28°C° 1.1 mm 3 mps 647 mmHg 61%
    19:00 +26°C° 1.1 mm 2 mps 647 mmHg 71%
    20:00 +23°C° 1.1 mm 1 mps 648 mmHg 82%
    21:00 +23°C° 0.5 mm 1 mps 648 mmHg 82%
    22:00 +23°C° 0.5 mm 1 mps 649 mmHg 82%
    23:00 +23°C° 0.5 mm 1 mps 649 mmHg 83%

    Day after tomorrow, 21 December, Friday

    Time Temperature Precipitation Wind Pressure Humidity
    00:00 +22°C° 0.5 mm 1 mps 649 mmHg 83%
    01:00 +22°C° 0.5 mm 1 mps 649 mmHg 82%
    02:00 +22°C° 0.5 mm 1 mps 649 mmHg 82%
    03:00 +21°C° 0.5 mm 1 mps 649 mmHg 83%
    04:00 +20°C° 0.5 mm 2 mps 649 mmHg 84%
    05:00 +20°C° 0.5 mm 2 mps 650 mmHg 84%
    06:00 +20°C° 0.4 mm 2 mps 650 mmHg 80%
    07:00 +21°C° 0.4 mm 2 mps 651 mmHg 75%
    08:00 +22°C° 0.4 mm 3 mps 652 mmHg 71%
    09:00 +25°C° 0.1 mm 3 mps 652 mmHg 65%
    10:00 +26°C° 0.1 mm 3 mps 652 mmHg 58%
    11:00 +28°C° 0.1 mm 3 mps 652 mmHg 52%
    12:00 +27°C° 0.3 mm 3 mps 651 mmHg 55%
    13:00 +27°C° 0.3 mm 3 mps 651 mmHg 58%
    14:00 +27°C° 0.3 mm 3 mps 650 mmHg 61%
    15:00 +26°C° 0.5 mm 3 mps 649 mmHg 63%
    16:00 +26°C° 0.5 mm 3 mps 649 mmHg 66%
    17:00 +25°C° 0.5 mm 3 mps 648 mmHg 68%
    18:00 +24°C° 1 mm 2 mps 649 mmHg 73%
    19:00 +23°C° 1 mm 2 mps 649 mmHg 78%
    20:00 +22°C° 1 mm 1 mps 650 mmHg 83%
    21:00 +22°C° 0.1 mm 1 mps 650 mmHg 84%
    22:00 +21°C° 0.1 mm 1 mps 650 mmHg 85%
    23:00 +21°C° 0.1 mm 1 mps 651 mmHg 87%

    22 December, Saturday

    Time Temperature Precipitation Wind Pressure Humidity
    00:00 +20°C° 0 mm 1 mps 650 mmHg 87%
    01:00 +20°C° 0 mm 1 mps 650 mmHg 87%
    02:00 +20°C° 0 mm 1 mps 650 mmHg 87%
    03:00 +20°C° 0 mm 1 mps 650 mmHg 86%
    04:00 +20°C° 0 mm 1 mps 650 mmHg 86%
    05:00 +20°C° 0 mm 1 mps 650 mmHg 85%
    06:00 +21°C° 0 mm 1 mps 651 mmHg 81%
    07:00 +22°C° 0 mm 1 mps 652 mmHg 76%
    08:00 +23°C° 0 mm 1 mps 652 mmHg 71%
    09:00 +24°C° 0 mm 1 mps 652 mmHg 67%
    10:00 +25°C° 0 mm 2 mps 653 mmHg 62%
    11:00 +27°C° 0 mm 2 mps 653 mmHg 58%
    12:00 +27°C° 0.1 mm 2 mps 652 mmHg 55%
    13:00 +28°C° 0.1 mm 2 mps 652 mmHg 52%
    14:00 +29°C° 0.1 mm 3 mps 651 mmHg 50%
    15:00 +28°C° 0.2 mm 3 mps 650 mmHg 52%
    16:00 +28°C° 0.2 mm 3 mps 650 mmHg 54%
    17:00 +27°C° 0.2 mm 3 mps 649 mmHg 57%
    18:00 +26°C° 0.2 mm 2 mps 650 mmHg 61%
    19:00 +24°C° 0.2 mm 2 mps 650 mmHg 66%
    20:00 +23°C° 0.2 mm 1 mps 651 mmHg 71%
    21:00 +22°C° 0.1 mm 1 mps 651 mmHg 72%
    22:00 +22°C° 0.1 mm 1 mps 651 mmHg 73%
    23:00 +21°C° 0.1 mm 1 mps 652 mmHg 75%

    23 December, Sunday

    Time Temperature Precipitation Wind Pressure Humidity
    00:00 +21°C° 0 mm 1 mps 651 mmHg 75%
    01:00 +21°C° 0 mm 1 mps 651 mmHg 75%
    02:00 +20°C° 0 mm 1 mps 651 mmHg 75%
    03:00 +20°C° 0 mm 1 mps 651 mmHg 76%
    04:00 +20°C° 0 mm 1 mps 651 mmHg 76%
    05:00 +20°C° 0 mm 1 mps 651 mmHg 77%
    06:00 +21°C° 0 mm 1 mps 652 mmHg 72%
    07:00 +22°C° 0 mm 1 mps 653 mmHg 68%
    08:00 +24°C° 0 mm 1 mps 654 mmHg 63%
    09:00 +25°C° 0 mm 2 mps 654 mmHg 59%
    10:00 +27°C° 0 mm 2 mps 654 mmHg 54%
    11:00 +29°C° 0 mm 2 mps 654 mmHg 50%
    12:00 +29°C° 0.1 mm 2 mps 653 mmHg 50%
    13:00 +29°C° 0.1 mm 3 mps 653 mmHg 50%
    14:00 +29°C° 0.1 mm 3 mps 652 mmHg 51%
    15:00 +28°C° 0.3 mm 3 mps 651 mmHg 54%
    16:00 +27°C° 0.3 mm 3 mps 651 mmHg 58%
    17:00 +26°C° 0.3 mm 2 mps 650 mmHg 62%
    18:00 +25°C° 0.6 mm 2 mps 651 mmHg 68%
    19:00 +24°C° 0.6 mm 2 mps 651 mmHg 74%
    20:00 +22°C° 0.6 mm 1 mps 651 mmHg 80%
    21:00 +22°C° 0.6 mm 1 mps 652 mmHg 81%
    22:00 +22°C° 0.6 mm 1 mps 652 mmHg 82%
    23:00 +21°C° 0.6 mm 1 mps 652 mmHg 83%

    24 December, Monday

    Time Temperature Precipitation Wind Pressure Humidity
    00:00 +21°C° 0.2 mm 1 mps 652 mmHg 83%
    01:00 +21°C° 0.2 mm 1 mps 652 mmHg 84%
    02:00 +20°C° 0.2 mm 1 mps 651 mmHg 84%
    03:00 +20°C° 0 mm 1 mps 651 mmHg 84%
    04:00 +18°C° 0 mm 0 mps 651 mmHg 84%
    05:00 +17°C° 0 mm 0 mps 651 mmHg 85%
    06:00 +21°C° 0 mm 1 mps 652 mmHg 79%
    07:00 +22°C° 0 mm 1 mps 652 mmHg 73%
    08:00 +24°C° 0 mm 1 mps 653 mmHg 68%
    09:00 +25°C° 0 mm 1 mps 653 mmHg 63%
    10:00 +26°C° 0 mm 2 mps 653 mmHg 59%
    11:00 +28°C° 0 mm 2 mps 653 mmHg 55%
    12:00 +28°C° 0.1 mm 3 mps 652 mmHg 55%
    13:00 +28°C° 0.1 mm 3 mps 652 mmHg 56%
    14:00 +28°C° 0.1 mm 3 mps 651 mmHg 56%
    15:00 +28°C° 0.1 mm 3 mps 651 mmHg 58%
    16:00 +27°C° 0.1 mm 3 mps 650 mmHg 60%
    17:00 +27°C° 0.1 mm 3 mps 650 mmHg 62%
    18:00 +25°C° 0.2 mm 2 mps 650 mmHg 68%
    19:00 +24°C° 0.2 mm 1 mps 650 mmHg 74%
    20:00 +23°C° 0.2 mm 1 mps 650 mmHg 80%
    21:00 +22°C° 0.1 mm 1 mps 650 mmHg 81%
    22:00 +22°C° 0.1 mm 1 mps 651 mmHg 83%
    23:00 +22°C° 0.1 mm 1 mps 651 mmHg 84%
    Show more